Location: Mohawk View
(42.7837°N, 73.7885°W)
Time: 11:04:54
(UTC+00:00)

Meteor 1-24 Rocket - Pass Details

Date: 30 October 2021
Orbit: 790 x 927 km, 81.3° (Epoch: 08 December)

Event Time Altitude Azimuth Distance (km) Brightness Sun altitude
Rises 09:54:57 0° 195° (SSW) 3,293 6.7 -17.4°
Reaches altitude 10° 09:57:18 10° 197° (SSW) 2,379 5.9 -17.0°
Maximum altitude 10:02:39 70° 281° (W) 876 3.5 -16.0°
Drops below altitude 10° 10:08:13 10° 6° (N) 2,474 6.1 -15.0°
Sets 10:10:43 0° 8° (N) 3,436 6.9 -14.5°
